Regional Weather Roundup
Issued by NWS

Home | Current Version | Previous Version | Graphics & Text | Print | Product List | Glossary On
Versions: 1 2 3 4 5 6 7 8 9 10 11 12 13 14 15 16 17 18 19 20 21 22 23 24 25 26 27 28 29 30 31 32 33 34 35 36 37 38 39 40 41 42 43 44 45 46 47 48 49 50
000
ASUS43 KLMK 190302
RWRKY
KENTUCKY REGIONAL WEATHER ROUNDUP
NATIONAL WEATHER SERVICE LOUISVILLE KY
1100 PM EDT SAT APR 18 2015

NOTE "FAIR" INDICATES FEW OR NO CLOUDS BELOW 12,000 FEET
WITH NO SIGNIFICANT WEATHER AND/OR OBSTRUCTIONS TO VISIBILITY.

KYZ001>023-026-027-061>063-070>075-190400-
WESTERN AND SOUTH CENTRAL KENTUCKY

CITY           SKY/WX    TMP DP  RH WIND       PRES   REMARKS
PADUCAH        CLOUDY    67  60  78 CALM      29.85S
HENDERSON      MOCLDY    68  54  60 E6        29.87S
OWENSBORO      MOCLDY    72  50  45 E8        29.90R
HOPKINSVILLE   DRIZZLE   70  61  71 NE3       29.87S
BOWLING GREEN  CLOUDY    68  58  70 CALM      29.88S
GLASGOW        NOT AVBL
$$

KYZ024-025-028>034-038-045-046-053-190400-
NORTH CENTRAL KENTUCKY

CITY           SKY/WX    TMP DP  RH WIND       PRES   REMARKS
LOUISVILLE/SDF MOCLDY    71  47  42 NE6       29.91F
LOUISVILLE/LOU MOCLDY    70  48  45 NE5       29.92F
FORT KNOX      PTCLDY    66  48  52 NE3       29.90F
$$

KYZ035>037-039>044-047>052-055>060-089>105-190400-
NORTHEAST KENTUCKY

CITY           SKY/WX    TMP DP  RH WIND       PRES   REMARKS
LEXINGTON      MOCLDY    65  48  54 NE9       29.94S
COVINGTON      MOCLDY    69  45  41 E10       29.97S
FRANKFORT      MOCLDY    70  44  39 NE5       29.92S
$$

KYZ054-064>069-076>088-106>120-190400-
SOUTHEAST KENTUCKY

CITY           SKY/WX    TMP DP  RH WIND       PRES   REMARKS
JACKSON        MOCLDY    69  45  41 VRB3      29.96S
LONDON         CLOUDY    71  49  45 E6        29.94R
SOMERSET       NOT AVBL
MIDDLESBORO    CLOUDY    67  60  76 CALM      29.96S
MONTICELLO     CLOUDY    69  57  65 SE6       29.94F
$$



USA.gov is the U.S. government's official web portal to all federal, state and local government web resources and services.